Regional Weather Roundup
Issued by NWS

Home | Current Version | Previous Version | Graphics & Text | Print | Product List | Glossary Off
Versions: 1 2 3 4 5 6 7 8 9 10 11 12 13 14 15 16 17 18 19 20 21 22 23 24 25 26 27 28 29 30 31 32 33 34 35 36 37 38 39 40 41 42 43 44 45 46 47 48 49 50

000
ASUS43 KLOT 260210
RWRIL

ILLINOIS REGIONAL WEATHER ROUNDUP
NATIONAL WEATHER SERVICE CHICAGO/ROMEOVILLE IL
900 PM CDT SAT OCT 25 2014

NOTE: "FAIR" INDICATES FEW OR NO CLOUDS BELOW 12,000 FEET WITH NO
SIGNIFICANT WEATHER AND/OR OBSTRUCTIONS TO VISIBILITY.

* THESE STATIONS ARE NOT UNDER NWS QUALITY CONTROL. THEY ALSO MAY NOT
  REPORT WEATHER SUCH AS PRECIPITATION OR FOG.

ILZ001-002-007-009-015-016-024-260300-
NORTHWEST ILLINOIS

CITY           SKY/WX    TMP DP  RH WIND       PRES   REMARKS
MOLINE         CLEAR     52  36  54 W5        30.03R
STERLING*      CLEAR     50  34  53 NW7       30.01R
SAVANNA*       CLEAR     55  33  43 NW3       30.02R
$$

ILZ003-004-008-010-011-017-018-260300-
NORTH CENTRAL ILLINOIS

CITY           SKY/WX    TMP DP  RH WIND       PRES   REMARKS
ROCKFORD       CLEAR     55  30  38 NW10      30.01R
FREEPORT*      CLEAR     51  31  46 W7        30.02R
ROCHELLE*      CLEAR     49  33  54 W7        30.01R
DE KALB*       CLEAR     50  32  50 NW7       29.99S
PERU*          CLEAR     57  34  42 NW12      30.00R
$$

ILZ005-006-012>014-019>023-260300-
NORTHEAST ILLINOIS

CITY           SKY/WX    TMP DP  RH WIND       PRES   REMARKS
CHICAGO-OHARE  CLEAR     57  30  35 NW9       29.96R
CHICAGO-MIDWAY CLEAR     62  30  29 NW10      29.96R
AURORA         CLEAR     49  33  54 W5        29.99R
LANSING*       CLEAR     61  30  31 NW8       29.96R
JOLIET*        CLEAR     56  32  40 NW3       29.98R
WAUKEGAN       CLEAR     56  26  31 NW5       29.95R
DUPAGE AIRPORT CLEAR     57  30  35 NW12      29.97R
KANKAKEE*      CLEAR     51  36  55 W3        29.98R
WHEELING       CLEAR     58  28  32 W7        29.97R
MORRIS*        CLEAR     51  37  60 NW5       29.98R
ROMEOVILLE*    CLEAR     55  31  39 NW7       29.98R
NORTHERLY ISL    N/A     63  29  27 NW8         N/A
$$

LMZ740>746-260300-
SOUTHERN LAKE MICHIGAN

STATION/POSITION SKY/WX   TEMP    WIND        PRES    VSBY  WAVE
                          AIR SEA DIR/SP/G                  HT/PER
                          (F)     (DEG/KT/KT) (MB)    (MI)  (FT/S)
SOUTHERN BUOY              58 54  280/ 16/ 19 1012.9R         2/ 4
WAUKEGAN HARBOR            60     300/  9/ 13   N/A
HARRISON CRIB              65     300/ 20/ 24   N/A
BURNHAM HARBOR             63     290/  9/ 13   N/A
CALUMET HARBOR             62     280/  6/  8 1013.2R
MICHIGAN CITY              60     270/ 17/ 19   N/A
$$

ILZ025>027-034>036-040-047-049-050-058-095>099-260300-
WEST-CENTRAL ILLINOIS

CITY           SKY/WX    TMP DP  RH WIND       PRES   REMARKS
QUINCY         CLEAR     61  43  51 N7        30.04R
GALESBURG*     CLEAR     52  39  59 NW3       30.03S
MACOMB*        CLEAR     52  40  64 NW7       30.05S
JACKSONVILLE*  CLEAR     58  46  66 NW3       30.03R
PITTSFIELD*    CLEAR     57  49  74 W3        30.04S
$$

ILZ028>032-037-038-041>044-048-051>054-059>061-260300-
CENTRAL ILLINOIS

CITY           SKY/WX    TMP DP  RH WIND       PRES   REMARKS
PONTIAC        CLEAR     53  40  59 W6        30.00R
BLOOMINGTON    CLEAR     59  39  47 NW6       30.02R
DECATUR        CLEAR     65  43  44 W7        30.01R
PEORIA         CLEAR     62  37  39 NW5       30.02R
LACON*         CLEAR     52  38  57 CALM      30.01R
LINCOLN*       CLEAR     62  41  46 NW3       29.99S
SPRINGFIELD    CLEAR     57  43  59 N6        30.02R
TAYLORVILLE    CLEAR     57  46  67 NW3       30.02R
$$

ILZ033-039-045-046-055>057-062-063-260300-
EAST-CENTRAL ILLINOIS

CITY           SKY/WX    TMP DP  RH WIND       PRES   REMARKS
CHAMPAIGN      CLEAR     54  46  74 W7        29.99S
DANVILLE*      CLEAR     59  42  54 W7        29.95R
RANTOUL*       CLEAR     56  43  61 NW7       29.98S
MATTOON        CLEAR     63  46  54 W6        29.99S
PARIS*         CLEAR     56  47  72 W6        29.99R
$$

ILZ079-100>102-260300-
SOUTHWEST ILLINOIS

CITY           SKY/WX    TMP DP  RH WIND       PRES   REMARKS
ALTON          CLEAR     59  52  77 CALM      30.02S
BELLEVILLE     CLEAR     59  57  91 CALM      30.01S
CAHOKIA*       CLEAR     60  55  83 CALM      30.01S
SPARTA*        CLEAR     61  56  83 CALM      30.03R
$$

ILZ064>066-069>071-074>076-080>082-084>086-088>090-092>094-260300-
SOUTH-CENTRAL ILLINOIS

CITY           SKY/WX    TMP DP  RH WIND       PRES   REMARKS
CARBONDALE     CLEAR     57  53  86 CALM      30.02R
CAIRO*         FOG       62  58  87 CALM      30.01F VSB 1/2
EFFINGHAM*     CLEAR     57  49  73 CALM      30.00S
MARION         CLEAR     57  55  94 CALM      30.02S
MT. VERNON     CLEAR     52  48  87 CALM      30.02S
CENTRALIA*     CLEAR     57  52  82 CALM      30.01S
SALEM*         CLEAR     63  55  77 CALM      30.01S
METROPOLIS*    CLEAR     60  60 100 CALM      30.00F FOG
$$

ILZ067-068-072-073-078-083-087-091-260300-
SOUTHEAST ILLINOIS

CITY           SKY/WX    TMP DP  RH WIND       PRES   REMARKS
LAWRENCEVILLE  HAZE      61  52  72 W5        29.98S VSB 3/4
FLORA*         CLEAR     58  51  79 W3        30.01S
FAIRFIELD*     CLEAR     55  52  92 CALM      30.00S
HARRISBURG*    CLEAR     57  54  89 CALM      30.02S
ROBINSON*      CLEAR     62  52  71 W6        29.99S
CARMI*         CLEAR     58  55  89 CALM      30.00S
$$

ABBREVIATIONS USED IN REMARKS
   TC - TEMPERATURE IN CELSIUS
  WCI - WIND CHILL INDEX
   HX - HEAT INDEX
  VSB - VISIBILITY
$$




USA.gov is the U.S. government's official web portal to all federal, state and local government web resources and services.